• In Netherlands
  • List of Countries
  • For 7 days
  • Water Temperature
  • Satellite Maps
  • Weather Map
  • Weather Widgets
  • user-avatar
    Login

    Hourly Weather Konstantyna

    Today, 19 September, Tuesday

    Time Temperature Precipitation Wind Pressure Humidity
    00:00 +20°C° 0 mm 3 mps 711 mmHg 69%
    01:00 +19°C° 0 mm 2 mps 711 mmHg 70%
    02:00 +19°C° 0 mm 2 mps 711 mmHg 70%
    03:00 +19°C° 0 mm 2 mps 711 mmHg 71%
    04:00 +18°C° 0 mm 2 mps 711 mmHg 73%
    05:00 +18°C° 0 mm 2 mps 711 mmHg 75%
    06:00 +18°C° 0 mm 2 mps 711 mmHg 77%
    07:00 +19°C° 0 mm 2 mps 712 mmHg 70%
    08:00 +20°C° 0 mm 3 mps 712 mmHg 64%
    09:00 +21°C° 0 mm 3 mps 713 mmHg 57%
    10:00 +22°C° 0 mm 3 mps 713 mmHg 52%
    11:00 +23°C° 0 mm 4 mps 713 mmHg 48%
    12:00 +25°C° 0 mm 4 mps 713 mmHg 44%
    13:00 +25°C° 0 mm 4 mps 713 mmHg 43%
    14:00 +25°C° 0 mm 4 mps 713 mmHg 43%
    15:00 +25°C° 0 mm 4 mps 712 mmHg 42%
    16:00 +23°C° 0 mm 4 mps 712 mmHg 46%
    17:00 +22°C° 0 mm 3 mps 712 mmHg 50%
    18:00 +21°C° 0 mm 3 mps 712 mmHg 54%
    19:00 +20°C° 0 mm 3 mps 713 mmHg 58%
    20:00 +19°C° 0 mm 2 mps 713 mmHg 63%
    21:00 +20°C° 0 mm 1 mps 713 mmHg 67%
    22:00 +19°C° 0 mm 1 mps 713 mmHg 68%
    23:00 +19°C° 0 mm 1 mps 713 mmHg 70%

    Tomorrow, 20 September, Wednesday

    Time Temperature Precipitation Wind Pressure Humidity
    00:00 +18°C° 0 mm 1 mps 713 mmHg 72%
    01:00 +18°C° 0 mm 1 mps 713 mmHg 72%
    02:00 +18°C° 0 mm 1 mps 712 mmHg 73%
    03:00 +18°C° 0 mm 1 mps 712 mmHg 73%
    04:00 +16°C° 0 mm 1 mps 712 mmHg 74%
    05:00 +16°C° 0 mm 1 mps 713 mmHg 74%
    06:00 +16°C° 0 mm 1 mps 713 mmHg 74%
    07:00 +18°C° 0 mm 1 mps 713 mmHg 68%
    08:00 +19°C° 0 mm 1 mps 714 mmHg 63%
    09:00 +20°C° 0 mm 2 mps 714 mmHg 58%
    10:00 +21°C° 0 mm 2 mps 714 mmHg 52%
    11:00 +23°C° 0 mm 2 mps 714 mmHg 47%
    12:00 +24°C° 0 mm 2 mps 714 mmHg 42%
    13:00 +24°C° 0 mm 2 mps 714 mmHg 40%
    14:00 +25°C° 0 mm 2 mps 714 mmHg 38%
    15:00 +25°C° 0 mm 3 mps 713 mmHg 37%
    16:00 +24°C° 0 mm 3 mps 713 mmHg 40%
    17:00 +23°C° 0 mm 2 mps 713 mmHg 44%
    18:00 +21°C° 0 mm 2 mps 713 mmHg 48%
    19:00 +21°C° 0 mm 2 mps 713 mmHg 51%
    20:00 +20°C° 0 mm 2 mps 713 mmHg 54%
    21:00 +19°C° 0 mm 2 mps 713 mmHg 58%
    22:00 +20°C° 0 mm 1 mps 713 mmHg 58%
    23:00 +20°C° 0 mm 1 mps 713 mmHg 59%

    Day after tomorrow, 21 September, Thursday

    Time Temperature Precipitation Wind Pressure Humidity
    00:00 +19°C° 0 mm 1 mps 713 mmHg 60%
    01:00 +19°C° 0 mm 1 mps 712 mmHg 60%
    02:00 +19°C° 0 mm 1 mps 712 mmHg 60%
    03:00 +19°C° 0 mm 1 mps 712 mmHg 60%
    04:00 +19°C° 0 mm 1 mps 712 mmHg 59%
    05:00 +19°C° 0 mm 1 mps 712 mmHg 58%
    06:00 +19°C° 0 mm 1 mps 712 mmHg 57%
    07:00 +21°C° 0 mm 2 mps 712 mmHg 50%
    08:00 +24°C° 0 mm 2 mps 713 mmHg 44%
    09:00 +26°C° 0 mm 3 mps 713 mmHg 37%
    10:00 +27°C° 0 mm 3 mps 713 mmHg 34%
    11:00 +28°C° 0 mm 3 mps 713 mmHg 30%
    12:00 +30°C° 0 mm 3 mps 713 mmHg 26%
    13:00 +30°C° 0 mm 3 mps 712 mmHg 26%
    14:00 +30°C° 0 mm 3 mps 712 mmHg 27%
    15:00 +30°C° 0 mm 3 mps 711 mmHg 27%
    16:00 +29°C° 0 mm 3 mps 711 mmHg 31%
    17:00 +27°C° 0 mm 3 mps 711 mmHg 35%
    18:00 +26°C° 0 mm 2 mps 711 mmHg 40%
    19:00 +25°C° 0 mm 2 mps 711 mmHg 42%
    20:00 +25°C° 0 mm 2 mps 711 mmHg 45%
    21:00 +24°C° 0 mm 1 mps 712 mmHg 48%
    22:00 +24°C° 0 mm 1 mps 711 mmHg 47%
    23:00 +23°C° 0 mm 1 mps 711 mmHg 47%

    22 September, Friday

    Time Temperature Precipitation Wind Pressure Humidity
    00:00 +23°C° 0 mm 1 mps 711 mmHg 47%
    01:00 +23°C° 0 mm 1 mps 711 mmHg 46%
    02:00 +23°C° 0 mm 1 mps 710 mmHg 46%
    03:00 +22°C° 0 mm 1 mps 710 mmHg 46%
    04:00 +22°C° 0 mm 1 mps 710 mmHg 46%
    05:00 +21°C° 0 mm 2 mps 710 mmHg 46%
    06:00 +21°C° 0 mm 2 mps 710 mmHg 46%
    07:00 +24°C° 0 mm 2 mps 711 mmHg 41%
    08:00 +26°C° 0 mm 2 mps 711 mmHg 36%
    09:00 +29°C° 0 mm 2 mps 712 mmHg 30%
    10:00 +30°C° 0 mm 2 mps 712 mmHg 28%
    11:00 +31°C° 0 mm 2 mps 712 mmHg 25%
    12:00 +32°C° 0 mm 2 mps 712 mmHg 22%
    13:00 +33°C° 0 mm 3 mps 711 mmHg 23%
    14:00 +33°C° 0 mm 3 mps 711 mmHg 23%
    15:00 +33°C° 0 mm 3 mps 711 mmHg 24%
    16:00 +31°C° 0 mm 3 mps 711 mmHg 29%
    17:00 +29°C° 0 mm 3 mps 711 mmHg 34%
    18:00 +27°C° 0 mm 2 mps 711 mmHg 40%
    19:00 +27°C° 0 mm 2 mps 711 mmHg 43%
    20:00 +26°C° 0 mm 1 mps 712 mmHg 46%
    21:00 +25°C° 0 mm 1 mps 712 mmHg 50%
    22:00 +25°C° 0 mm 1 mps 712 mmHg 50%
    23:00 +24°C° 0 mm 1 mps 711 mmHg 51%

    23 September, Saturday

    Time Temperature Precipitation Wind Pressure Humidity
    00:00 +24°C° 0 mm 1 mps 711 mmHg 52%
    01:00 +24°C° 0 mm 1 mps 711 mmHg 51%
    02:00 +24°C° 0 mm 1 mps 711 mmHg 51%
    03:00 +23°C° 0 mm 1 mps 711 mmHg 51%
    04:00 +23°C° 0 mm 1 mps 711 mmHg 50%
    05:00 +24°C° 0 mm 1 mps 711 mmHg 49%
    06:00 +24°C° 0 mm 1 mps 711 mmHg 48%
    07:00 +26°C° 0 mm 2 mps 711 mmHg 42%
    08:00 +28°C° 0 mm 2 mps 712 mmHg 36%
    09:00 +30°C° 0 mm 2 mps 712 mmHg 30%
    10:00 +30°C° 0 mm 3 mps 712 mmHg 27%
    11:00 +31°C° 0 mm 3 mps 712 mmHg 24%
    12:00 +33°C° 0 mm 4 mps 712 mmHg 21%
    13:00 +33°C° 0 mm 4 mps 712 mmHg 23%
    14:00 +33°C° 0 mm 4 mps 712 mmHg 24%
    15:00 +31°C° 0 mm 3 mps 712 mmHg 25%
    16:00 +30°C° 0.2 mm 3 mps 712 mmHg 33%
    17:00 +28°C° 0.2 mm 3 mps 712 mmHg 41%
    18:00 +26°C° 0.2 mm 3 mps 711 mmHg 48%
    19:00 +25°C° 0.5 mm 3 mps 712 mmHg 52%
    20:00 +25°C° 0.5 mm 3 mps 712 mmHg 55%
    21:00 +24°C° 0.5 mm 3 mps 712 mmHg 58%
    22:00 +22°C° 0 mm 3 mps 711 mmHg 58%
    23:00 +22°C° 0 mm 3 mps 711 mmHg 58%

    24 September, Sunday

    Time Temperature Precipitation Wind Pressure Humidity
    00:00 +21°C° 0 mm 2 mps 711 mmHg 58%
    01:00 +21°C° 0 mm 2 mps 710 mmHg 58%
    02:00 +21°C° 0 mm 2 mps 710 mmHg 57%
    03:00 +21°C° 0 mm 2 mps 710 mmHg 57%
    04:00 +21°C° 0 mm 2 mps 710 mmHg 56%
    05:00 +21°C° 0 mm 2 mps 710 mmHg 55%
    06:00 +21°C° 0 mm 2 mps 710 mmHg 54%
    07:00 +24°C° 0 mm 2 mps 711 mmHg 48%
    08:00 +27°C° 0 mm 2 mps 711 mmHg 41%
    09:00 +29°C° 0 mm 3 mps 712 mmHg 34%
    10:00 +30°C° 0 mm 3 mps 712 mmHg 32%
    11:00 +30°C° 0 mm 3 mps 712 mmHg 31%
    12:00 +32°C° 0 mm 4 mps 712 mmHg 29%
    13:00 +32°C° 0 mm 4 mps 712 mmHg 30%
    14:00 +32°C° 0 mm 4 mps 712 mmHg 31%
    15:00 +30°C° 0 mm 4 mps 711 mmHg 32%
    16:00 +29°C° 0 mm 4 mps 711 mmHg 40%
    17:00 +27°C° 0 mm 3 mps 712 mmHg 47%
    18:00 +25°C° 0 mm 3 mps 712 mmHg 55%
    19:00 +25°C° 0 mm 2 mps 712 mmHg 60%
    20:00 +24°C° 0 mm 2 mps 712 mmHg 65%
    21:00 +23°C° 0 mm 1 mps 712 mmHg 70%
    22:00 +23°C° 0 mm 1 mps 712 mmHg 71%
    23:00 +22°C° 0 mm 1 mps 712 mmHg 73%
    Show more